Back to catalog

COSMOS 2251 DEB

AliveLEO
NORAD 35773·DEBRIS·🇷🇺 Russia

Launched Jun 16, 1993 from Plesetsk Cosmodrome

Loading…

Next Passes (next 24 hours)

TLE

FreshSource: Space-Track

Epoch: Sep 13, 2026, 02:35 UTC

1 35773U 93036ART 26256.10811075  .00001509  00000-0  29303-3 0  9995
2 35773  74.0071 173.9318 0047404 263.6253  95.9515 14.63428476908516

Track COSMOS 2251 DEB in real time with AllMySat

Download on the App Store